Regional Weather Roundup
Issued by NWS

Home | Current Version | Previous Version | Text Only | Print | Product List | Glossary Off
Versions: 1 2 3 4 5 6 7 8 9 10 11 12 13 14 15 16 17 18 19 20 21 22 23 24 25 26 27 28 29 30 31 32 33 34 35 36 37 38 39 40 41 42 43 44 45 46 47 48 49 50

000
ASUS43 KMKX 221511
RWRWI

WISCONSIN REGIONAL WEATHER ROUNDUP
NATIONAL WEATHER SERVICE MILWAUKEE/SULLIVAN WI
1000 AM CDT TUE AUG 22 2017

NOTE: "FAIR" INDICATES FEW OR NO CLOUDS BELOW 12,000 FEET WITH NO
SIGNIFICANT WEATHER AND/OR OBSTRUCTIONS TO VISIBILITY.

WIZ001-002-006>008-014>016-023>028-221600-
NORTHWEST WISCONSIN

CITY           SKY/WX    TMP DP  RH WIND       PRES   REMARKS
SUPERIOR ARPT    N/A     63  56  78 W5        29.94S
ASHLAND        SUNNY     63  54  72 W12       29.91S
HAYWARD        MOSUNNY   62  51  67 NW9       29.96R
SIREN          SUNNY     64  50  59 NW10G17   29.99R
CUMBERLAND     SUNNY     61  50  67 NW10      29.98S
RICE LAKE      SUNNY     64  52  65 W12       29.99S
CHETEK         SUNNY     63  53  68 NW8G18    29.97S
LADYSMITH      MOSUNNY   63  52  66 NW15G23   29.97R
EAU CLAIRE     MOSUNNY   65  51  60 NW13G24   29.97R
MENOMONIE      SUNNY     65  53  65 W12       29.99R
NEW RICHMOND   SUNNY     65  51  62 NW12G18   30.02R
OSCEOLA        SUNNY     65  55  68 W8        30.04R
$$

WIZ003>005-009-010-017-018-221600-
NORTH CENTRAL WISCONSIN

CITY           SKY/WX    TMP DP  RH WIND       PRES   REMARKS
MANITOWISH WTR CLOUDY    59  55  87 NW15G23   29.89R
ARBOR VITAE    MOSUNNY   62  54  75 NW12G20   29.88S
WOODRUFF       MOSUNNY   62  54  75 NW12G20   29.88S
RHINELANDER    PTSUNNY   63  53  70 W13       29.89R
EAGLE RIVER    PTSUNNY   59  51  72 W14G20    29.87R
LAND O LAKES   CLOUDY    59  53  80 W9G18     29.87R
PHILLIPS       CLOUDY    59  52  78 NW12G24   29.92R
TOMAHAWK         N/A     59  51  75 NW12G22   29.91R
MEDFORD        PTSUNNY   60  52  73 NW14G21   29.93R
MERRILL        PTSUNNY   63  54  72 NW10      29.90R
$$

WIZ029-030-035-036-043>047-221600-
CENTRAL WISCONSIN

CITY           SKY/WX    TMP DP  RH WIND       PRES   REMARKS
WAUSAU         MOSUNNY   65  52  62 NW15G21   29.89R
MOSINEE        MOSUNNY   63  55  77 NW13      29.91R
MARSHFIELD     PTSUNNY   65  53  65 NW16G24   29.92R
STEVENS POINT  MOSUNNY   64  53  65 NW12G21   29.91R
WAUPACA        MOSUNNY   71  56  59 NW12G17   29.88R
WAUTOMA        MOSUNNY   69  57  65 NW10G18   29.90R
WISC RAPIDS    SUNNY     69  55  60 N13       29.92R
CAMP DOUGLAS   MOSUNNY   68  57  68 NW17      29.93R
$$

WIZ011>013-019>022-031-037>040-048>050-221600-
NORTHEAST WISCONSIN

CITY           SKY/WX    TMP DP  RH WIND       PRES   REMARKS
ANTIGO         MOSUNNY   63  54  71 NW12G22   29.88R
SHAWANO        MOSUNNY   69  55  60 NW9G17    29.85R
OCONTO         MOSUNNY   67  54  61 NW12G17   29.81S
STURGEON BAY   MOSUNNY   67  57  70 NW13G22   29.81R
GREEN BAY      PTSUNNY   67  56  67 NW16G25   29.84R
MANITOWOC      PTSUNNY   69  57  65 NW22G30   29.81R
APPLETON       PTSUNNY   66  52  59 NW13      29.84R
CLINTONVILLE   MOSUNNY   68  52  56 NW13      29.86R
OSHKOSH        PTSUNNY   68  56  65 NW12G25   29.85R
$$

WIZ032>034-041-042-053>061-221600-
SOUTHWEST WISCONSIN

CITY           SKY/WX    TMP DP  RH WIND       PRES   REMARKS
LA CROSSE      MOSUNNY   71  57  61 NW17      29.96S
SPARTA         PTSUNNY   66  57  72 NW13      29.96R
VIROQUA        MOSUNNY   66  58  75 N14G20    29.97R
BOSCOBEL       PTSUNNY   70  58  65 NW13G18   29.95R
PRAIRIE DU CHI PTSUNNY   68  56  65 NW13G18   29.96S
PLATTEVILLE    PTSUNNY   68  64  86 NW13      29.96R
$$

WIZ056-057-062-063-064-067-068-221600-
SOUTH CENTRAL WISCONSIN

CITY           SKY/WX    TMP DP  RH WIND       PRES   REMARKS
REEDSBURG      SUNNY     70  57  63 N17G23    29.91R
BARABOO/DELLS  SUNNY     69  55  60 N13       29.91S
LONE ROCK      MOSUNNY   71  61  70 NW12G20   29.92R
MINERAL POINT  PTSUNNY   70  61  73 NW9G17    29.94S
MADISON        PTSUNNY   71  60  68 NW13G22   29.89R
MIDDLETON      PTSUNNY   71  62  72 NW12      29.90S
WATERTOWN      CLOUDY    70  64  80 W13       29.87R
MONROE         PTSUNNY   68  61  77 NW14G20   29.93R
JANESVILLE     MOSUNNY   72  63  73 NW17      29.88F
$$

WIZ051-052-058>065-066-070>072-221600-
SOUTHEAST WISCONSIN

CITY           SKY/WX    TMP DP  RH WIND       PRES   REMARKS
MILWAUKEE      CLOUDY    72  63  73 W12G21    29.84S
WAUKESHA       CLOUDY    70  61  73 W21G26    29.87R
MILWAUKEE/TIMM CLOUDY    70  59  68 W12G17    29.85R
RACINE         CLOUDY    72  64  76 W13G22    29.86S
KENOSHA        CLOUDY    71  62  73 W17G24    29.86S
FOND DU LAC    MOSUNNY   70  59  68 NW21G28   29.85R
SHEBOYGAN      MOSUNNY   72  65  78 W10G18    29.82R
WEST BEND      PTSUNNY   70  63  78 W16G23    29.84R
JUNEAU         PTSUNNY   69  60  73 W7G17     29.87S
$$

LSZ147-162-221600-
LAKE SUPERIOR

STATION/POSITION TIME  TEMP    WIND        PRES    WAVE
                       AIR SEA DIR/SP/G            HT/PER
                 (UTC) (F)     (DEG/KT/KT) (MB)    (FT/S)
W MID LAKE BUOY  1450   60 60  280/ 17/ 21 1009.6F   3/ 4
DEVILS ISLAND    1500   60     270/ 17/ 21 1011.7F
SAXON HARBOR     1440   62     290/  8/ 14 1012.2R
$$

LMZ867-665-643>646-221600-
LAKE MICHIGAN

STATION/POSITION TIME  TEMP    WIND        PRES    WAVE
                       AIR SEA DIR/SP/G            HT/PER
                 (UTC) (F)     (DEG/KT/KT) (MB)    (FT/S)
S GREEN BAY BUOY 1500   67 71  310/ 16/ 21 1009.6
N MID LAKE BUOY  1450   63 67  300/ 21/ 25 1007.4R   4/ 4
NORTHPORT PIER   1440   65     320/ 17/ 25 1008.1R
KEWAUNEE LAKESHO 1442   68     320/ 11/ 20 1008.3R
SHEBOYGAN LAKESH 1500   71     300/ 13/ 21 1008.9R
PORT WASHINGTON  1430   72     290/ 13/ 18 1010.5R
ATWATER BUOY     1409   69 65  270/ 14/ 17 1010.3R
MILWAUKEE LAKESH 1450   71     280/ 15/ 18   N/A
S MID LAKE BUOY  1350   71 71  290/ 19/ 21 1009.7R   3/ 5
KENOSHA   LAKESH 1500   71     280/ 16/ 23 1010.5
$$

TC  - TEMPERATURE IN CELSIUS
VSB - VISIBILITY IN STATUTE MILES
WCI - WIND CHILL INDEX
HX  - HEAT INDEX





USA.gov is the U.S. government's official web portal to all federal, state and local government web resources and services.